Location: Newark
(51.3318°N, 0.0053°E)
Time: 06:12:35
(UTC+00:00)

CUBEBUG 2 - Pass Details

Date: 06 July 2022
Orbit: 584 x 692 km, 97.7° (Epoch: 12 August)

Event Time Altitude Azimuth Distance (km) Brightness Sun altitude
Rises 02:31:33 0° 20° (NNE) 2,846 ? -9.3°
Reaches altitude 10° 02:33:50 10° 29° (NNE) 1,951 ? -9.1°
Maximum altitude 02:37:47 37° 97° (E) 954 ? -8.7°
Drops below altitude 10° 02:41:47 10° 166° (SSE) 1,988 ? -8.3°
Enters shadow 02:43:43 - 173° (S) 2,740 ? -8.2°
